Weather in Maloye Galovo

Russia / Komi Republic     65°17′08″N   52°56′09″E
temp.,
°C
wind,
m/s
gust,
m/s
humid.,
%
clouds,
%
prec.,
mm/h
press.,
hPa
HPBL,
m
18 may, tue
tue1800:00+6ne115636 0.0 102010
03:00+6ese115213 0.0 102210
06:00+9ese114393 0.0 1023150
09:00+10sse234647 0.0 1023180
12:00+18ssw234056 0.0 10221109
15:00+20wsw244266 0.0 10221890
18:00+18sse2353100 0.0 102169
21:00+16s396080 0.0 1021231
19 may, wed
wed1900:00+14s31261100 0.0 1021295
03:00+13s3126178 0.0 1021346
06:00+16s4125293 0.0 1019475
09:00+21ssw61042100 0.0 1017888
12:00+25sw5837100 0.0 10151408
15:00+28wsw693263 0.0 10142306
18:00+26sw483769 0.0 10131309
21:00+22sw4124980 0.0 1014407
20 may, thu
thu2000:00+19sw31159100 0.0 1014312
03:00+18sw396516 0.0 1014268
06:00+22wsw49525 0.0 1014428
09:00+27sw473629 0.0 10131079
12:00+28sw57274 0.0 10132118
15:00+29sw57214 0.0 10122261
18:00+27sw47235 0.0 10111394
21:00+21ssw312415 0.0 1011273
21 may, fri
fri2100:00+20sw413494 0.0 1011330
03:00+18sw3125942 0.0 1011319
06:00+22sw410470 0.0 1011524
09:00+26sw58290 0.0 10101797
12:00+28ssw68235 0.0 10092292
15:00+29ssw58240 0.0 10072735
18:00+27ssw48265 0.0 10062883
21:00+22s412345 0.0 1005491
22 may, sat
sat2200:00+19s412420 0.0 1005501
03:00+17s4115127 0.0 1004522
06:00+19ssw51054100 0.0 10031154
09:00+19ssw6955100 0.4 10011633
12:00+16ssw595972 3.2 10011373
15:00+15sw71270100 3.8 10021459
18:00+12wsw61174100 0.3 10041445
21:00+10w61179100 0.7 10061500